Longville, MN

5:53 PM CST on December 15, 2017 (GMT -0600)
Longville Municipal

Weather History for KXVG - April, 2013

Change the Weather History Date:

Friday, April 26, 2013

  Actual Average (KPWC) Record (KPWC)
Temperature  
Mean Temperature 48 °F -  
Max Temperature 64 °F 58 °F 71 °F (1999)
Min Temperature 32 °F 32 °F 1 °F (1999)
Degree Days  
Heating Degree Days 16    
Moisture  
Dew Point 29 °F    
Average Humidity 53    
Maximum Humidity 81    
Minimum Humidity 24    
Precipitation  
Precipitation 0.00 in - - ()
Sea Level Pressure  
Sea Level Pressure 30.01 in    
Wind  
Wind Speed 6 mph (South)    
Max Wind Speed 14 mph    
Max Gust Speed 21 mph    
Visibility 10 miles    
Events Rain    
Averages and records for this station are not official NWS values.
T = Trace of Precipitation, MM = Missing Value Source: NWS Daily Summary

Daily Weather History Graph

Daily Weather History Graph

Search for Another Location

Airport or City:

Trip Planner

Search our weather history database for the weather conditions in past years. The results will help you decide how hot, cold, wet, or windy it might be!

Date:

Astronomy

Apr. 26, 2013 Rise Set
Actual Time 6:09 AM CDT 8:20 PM CDT
Civil Twilight 5:35 AM CDT 8:54 PM CDT
Nautical Twilight 4:54 AM CDT 9:35 PM CDT
Astronomical Twilight 4:08 AM CDT 10:22 PM CDT
Moon 9:49 PM CDT (4/26) 6:33 AM CDT (4/26)
Length of Visible Light 15h 18m
Length of Day
14h 11m
Full, 99% of the Moon is Illuminated
Apr 26
Full
May 2
Last Quarter
May 9
New
May 17
First Quarter
May 24
Full

Hourly Weather History & Observations

Time (CDT) Temp. Windchill Dew Point Humidity Pressure Visibility Wind Dir Wind Speed Gust Speed Precip Events Conditions
12:16 AM 39.2 °F 32.5 °F 26.6 °F 61% 30.02 in 10.0 mi SSE 10.4 mph - N/A   Scattered Clouds
12:36 AM 39.2 °F 32.0 °F 28.4 °F 65% 30.01 in 10.0 mi SSE 11.5 mph - N/A Rain Light Rain
12:56 AM 39.2 °F 31.2 °F 28.4 °F 65% 30.00 in 10.0 mi SSE 13.8 mph - N/A   Scattered Clouds
1:16 AM 39.2 °F 32.0 °F 28.4 °F 65% 29.99 in 10.0 mi SSE 11.5 mph - N/A   Clear
1:36 AM 39.2 °F 32.0 °F 28.4 °F 65% 29.98 in 10.0 mi SE 11.5 mph - N/A   Clear
1:56 AM 39.2 °F 31.2 °F 26.6 °F 61% 29.97 in 10.0 mi SSE 13.8 mph 20.7 mph N/A   Scattered Clouds
2:16 AM 39.2 °F 32.0 °F 26.6 °F 61% 29.95 in 10.0 mi SE 11.5 mph - N/A   Clear
2:36 AM 39.2 °F 32.0 °F 26.6 °F 61% 29.95 in 10.0 mi SE 11.5 mph - N/A   Clear
2:56 AM 39.2 °F 33.0 °F 26.6 °F 61% 29.93 in 10.0 mi SE 9.2 mph 16.1 mph N/A   Clear
3:16 AM 39.2 °F 34.2 °F 26.6 °F 61% 29.93 in 10.0 mi SE 6.9 mph - N/A   Clear
3:36 AM 39.2 °F 33.6 °F 26.6 °F 61% 29.92 in 10.0 mi SE 8.1 mph - N/A   Clear
3:56 AM 39.2 °F 35.0 °F 26.6 °F 61% 29.92 in 10.0 mi SE 5.8 mph - N/A   Clear
4:16 AM 39.2 °F 35.0 °F 26.6 °F 61% 29.91 in 10.0 mi SE 5.8 mph - N/A   Clear
4:36 AM 37.4 °F 33.8 °F 26.6 °F 65% 29.92 in 10.0 mi SE 4.6 mph - N/A   Clear
4:56 AM 37.4 °F 33.8 °F 26.6 °F 65% 29.91 in 10.0 mi SE 4.6 mph - N/A   Clear
5:16 AM 35.6 °F 32.8 °F 28.4 °F 75% 29.91 in 10.0 mi SE 3.5 mph - N/A   Clear
5:36 AM 35.6 °F 32.8 °F 28.4 °F 75% 29.91 in 10.0 mi SE 3.5 mph - N/A   Clear
5:56 AM 35.6 °F 31.7 °F 28.4 °F 75% 29.91 in 10.0 mi SE 4.6 mph - N/A   Clear
6:16 AM 35.6 °F 32.8 °F 28.4 °F 75% 29.92 in 10.0 mi SE 3.5 mph - N/A   Clear
6:56 AM 33.8 °F 30.8 °F 28.4 °F 81% 29.93 in 10.0 mi SE 3.5 mph - N/A   Clear
7:16 AM 35.6 °F 32.8 °F 30.2 °F 81% 29.93 in 10.0 mi SE 3.5 mph - N/A   Clear
7:36 AM 39.2 °F 37.0 °F 30.2 °F 70% 29.94 in 10.0 mi SSE 3.5 mph - N/A   Clear
7:56 AM 39.2 °F 35.0 °F 30.2 °F 70% 29.95 in 10.0 mi SSE 5.8 mph - N/A   Clear
8:16 AM 41.0 °F 39.0 °F 30.2 °F 65% 29.95 in 10.0 mi SE 3.5 mph - N/A   Clear
8:36 AM 42.8 °F 41.1 °F 30.2 °F 61% 29.96 in 10.0 mi SSE 3.5 mph - N/A   Clear
8:56 AM 44.6 °F 43.1 °F 32.0 °F 61% 29.97 in 10.0 mi SSW 3.5 mph - N/A   Clear
9:16 AM 46.4 °F - 32.0 °F 57% 29.97 in 10.0 mi Calm Calm - N/A   Clear
9:36 AM 46.4 °F 45.2 °F 32.0 °F 57% 29.97 in 10.0 mi SW 3.5 mph - N/A   Clear
9:56 AM 48.2 °F - 33.8 °F 58% 29.98 in 10.0 mi South 4.6 mph - N/A   Clear
10:16 AM 48.2 °F - 33.8 °F 58% 29.98 in 10.0 mi SW 3.5 mph - N/A   Clear
10:36 AM 48.2 °F - 33.8 °F 58% 29.99 in 10.0 mi Calm Calm - N/A   Clear
10:56 AM 50.0 °F - 33.8 °F 54% 29.99 in 10.0 mi WSW 3.5 mph - N/A   Clear
11:16 AM 51.8 °F - 33.8 °F 50% 29.99 in 10.0 mi South 3.5 mph - N/A   Clear
11:36 AM 53.6 °F - 33.8 °F 47% 29.99 in 10.0 mi Calm Calm - N/A   Clear
11:56 AM 53.6 °F - 33.8 °F 47% 30.00 in 10.0 mi Calm Calm - N/A   Clear
12:16 PM 55.4 °F - 33.8 °F 44% 30.01 in 10.0 mi Calm Calm - N/A   Clear
12:36 PM 55.4 °F - 33.8 °F 44% 30.02 in 10.0 mi Calm Calm - N/A   Clear
12:56 PM 57.2 °F - 33.8 °F 41% 30.02 in 10.0 mi Calm Calm - N/A   Clear
1:16 PM 57.2 °F - 33.8 °F 41% 30.02 in 10.0 mi Calm Calm - N/A   Clear
1:36 PM 57.2 °F - 33.8 °F 41% 30.02 in 10.0 mi West 4.6 mph - N/A   Clear
1:56 PM 57.2 °F - 30.2 °F 36% 30.02 in 10.0 mi WNW 4.6 mph - N/A   Clear
2:16 PM 59.0 °F - 30.2 °F 34% 30.02 in 10.0 mi WNW 3.5 mph - N/A   Clear
2:36 PM 59.0 °F - 28.4 °F 31% 30.03 in 10.0 mi NW 4.6 mph - N/A   Clear
2:56 PM 60.8 °F - 28.4 °F 29% 30.03 in 10.0 mi WNW 4.6 mph - N/A   Clear
3:16 PM 60.8 °F - 28.4 °F 29% 30.03 in 10.0 mi NNW 3.5 mph - N/A   Clear
3:36 PM 62.6 °F - 26.6 °F 26% 30.03 in 10.0 mi NW 4.6 mph - N/A   Clear
3:56 PM 62.6 °F - 26.6 °F 26% 30.04 in 10.0 mi WNW 3.5 mph - N/A   Clear
4:16 PM 62.6 °F - 26.6 °F 26% 30.04 in 10.0 mi NW 5.8 mph - N/A   Clear
4:36 PM 62.6 °F - 26.6 °F 26% 30.04 in 10.0 mi NW 3.5 mph - N/A   Clear
4:56 PM 62.6 °F - 26.6 °F 26% 30.04 in 10.0 mi NNW 3.5 mph - N/A   Clear
5:16 PM 62.6 °F - 26.6 °F 26% 30.05 in 10.0 mi WNW 3.5 mph - N/A   Clear
5:36 PM 64.4 °F - 26.6 °F 24% 30.05 in 10.0 mi Calm Calm - N/A   Clear
5:56 PM 62.6 °F - 26.6 °F 26% 30.05 in 10.0 mi West 4.6 mph - N/A   Clear
6:16 PM 62.6 °F - 26.6 °F 26% 30.06 in 10.0 mi WNW 5.8 mph - N/A   Clear
6:36 PM 62.6 °F - 26.6 °F 26% 30.06 in 10.0 mi NW 3.5 mph - N/A   Clear
6:56 PM 62.6 °F - 26.6 °F 26% 30.07 in 10.0 mi NW 3.5 mph - N/A   Clear
7:16 PM 60.8 °F - 26.6 °F 27% 30.07 in 10.0 mi Calm Calm - N/A   Clear
7:36 PM 57.2 °F - 26.6 °F 31% 30.07 in 10.0 mi Calm Calm - N/A   Clear
7:56 PM 53.6 °F - 26.6 °F 35% 30.08 in 10.0 mi Calm Calm - N/A   Clear
8:16 PM 50.0 °F - 28.4 °F 43% 30.09 in 10.0 mi Calm Calm - N/A   Clear
8:36 PM 46.4 °F - 28.4 °F 50% 30.09 in 10.0 mi Calm Calm - N/A   Clear
8:56 PM 42.8 °F - 28.4 °F 57% 30.10 in 10.0 mi Calm Calm - N/A   Clear
9:16 PM 41.0 °F - 28.4 °F 61% 30.10 in 10.0 mi Calm Calm - N/A   Clear
9:36 PM 39.2 °F - 28.4 °F 65% 30.10 in 10.0 mi Calm Calm - N/A   Clear
9:56 PM 39.2 °F - 30.2 °F 70% 30.11 in 10.0 mi Calm Calm - N/A   Clear
10:16 PM 37.4 °F - 30.2 °F 75% 30.11 in 10.0 mi Calm Calm - N/A   Clear
10:36 PM 35.6 °F - 28.4 °F 75% 30.11 in 10.0 mi Calm Calm - N/A   Clear
10:56 PM 35.6 °F - 28.4 °F 75% 30.11 in 10.0 mi Calm Calm - N/A   Clear
11:16 PM 33.8 °F - 28.4 °F 81% 30.11 in 10.0 mi Calm Calm - N/A   Clear
11:36 PM 33.8 °F - 26.6 °F 75% 30.10 in 10.0 mi Calm Calm - N/A   Clear
11:56 PM 32.0 °F - 26.6 °F 80% 30.10 in 10.0 mi Calm Calm - N/A   Clear